sat.trackr.live / text

‹ back to catalog

STARLINK-11698 [DTC]

NORAD 64325 · 2025-124J

PAYLOAD ACTIVE UNKNOWN

§ Identity

Operator
Country
US
Launch date
2025-06-10
Launch site
AFETR
Launch vehicle
Mass (kg)
RCS (m²)

Purposes: comms

External: N2YO · Heavens-Above · Gunter

§ Orbital elements

Epoch: 2026-05-24T18:48:56.010240Z

Period
91.66 min
Inclination
43.0017°
Eccentricity
0.0002021
Mean motion
15.71007383 rev/d
Perigee alt
354.7 km
Apogee alt
357.4 km
Semi-major
6,734.2 km
B*
1.6907e-3
RAAN
290.3971°
Arg perigee
266.4574°
Mean anomaly
93.6063°
Rev number
5,480

§ Raw data

STARLINK-11698 [DTC]1 64325U 25124J   26144.78398160  .00224006  00000+0  16907-2 0  99912 64325  43.0017 290.3971 0002021 266.4574  93.6063 15.71007383 54806

JSON: /api/v1/satellites/64325 · /tle

For live sub-satellite position, see the globe view (requires WebGL).

§ Visibility from observer

Set your observer location to see the next 7 days of passes ≥ 10°. The values pass through the URL so the page stays shareable.

No JS? Fill the form by hand. The geolocation button needs JavaScript.